NEXTSAT-1 (43811 NORAD) Tracking and Keplerian Element Data

This shows tracking and keplerian element data for the satellite.

Feedback or suggestion? Click here.




ElementValue
Catalog43811
NameNEXTSAT-1
Epoch Orbit386
Epoch Day1.59269099
Epoch Year2019
RAAN75.4763
Inclination97.7644
Eccentricity0.0013633
Argument of Perigee162.2939
Mean Anonmoly197.876
Mean Motion14.95320888
Decay Rate6.3E-07
L11 43811U 18099BF 19001.59269099 .00000063 00000-0 10954-4 0 9996
L22 43811 97.7644 75.4763 0013633 162.2939 197.8760 14.95320888 3869

Live tracking and technical data element details for NEXTSAT-1 (NORAD 43811). NEXTSAT-1 can be tracked NOW for your location showing map with azimuth and elevation plus other details from your city location.

Track the satellite on the map from your city or location and see movement details for azimuth, elevation, latitude, longitude, range, height, and movement on the map or in text.







IsCatalogInMostPopularTable: catalog: 43811, numindb: 76
Update: records affected: 1



GetName: 43811 NEXTSAT-1

Hit Count: updated at: Tue, 16 Jul 2019 20:15:54 GMT